CFG2PC EDDL-LGKR

Flight info

Callsign CFG2PC
Flight time 2h 13m
Altitude 33000
Route DODEN7Z/05R DODEN Y853 BOMBI DCT DETEV DCT DINKU M867 XERUM DCT BAVAX DCT RADIZ DCT ALIVO DCT UNIPA DCT VAKSU DCT RODON DCT LIMJA N732 PITAS
Aircraft A321/M-SDE3FGIJ1LORVWXYZ/LB1

Departure

Time 2026-05-05 14:30
Airport Düsseldorf Airport (EDDL)

Arrival

Time 2026-05-05 16:44
Airport Corfu Ioannis Kapodistrias International Airport (LGKR)
Time Latitude Longitude Altitude Speed Heading
2026-05-05 13:44 51.28542 6.77201 128 ft 0 kts 322°
2026-05-05 14:19 51.28535 6.77209 123 ft 4 kts 322°
2026-05-05 14:19 51.28517 6.77231 129 ft 2 kts 322°
2026-05-05 14:19 51.28502 6.77254 129 ft 4 kts 267°
2026-05-05 14:19 51.28512 6.77284 131 ft 4 kts 232°
2026-05-05 14:20 51.28520 6.77302 125 ft 0 kts 232°
2026-05-05 14:21 51.28510 6.77281 125 ft 3 kts 232°
2026-05-05 14:21 51.28501 6.77262 127 ft 1 kts 232°
2026-05-05 14:22 51.28485 6.77229 128 ft 6 kts 232°
2026-05-05 14:22 51.28452 6.77163 123 ft 7 kts 231°
2026-05-05 14:22 51.28424 6.77109 128 ft 5 kts 231°
2026-05-05 14:22 51.28403 6.77061 127 ft 7 kts 234°
2026-05-05 14:23 51.28366 6.76976 127 ft 10 kts 240°
2026-05-05 14:23 51.28371 6.76873 125 ft 10 kts 298°
2026-05-05 14:23 51.28421 6.76799 122 ft 11 kts 321°
2026-05-05 14:23 51.28451 6.76710 126 ft 9 kts 259°
2026-05-05 14:24 51.28421 6.76629 122 ft 8 kts 235°
2026-05-05 14:24 51.28390 6.76563 123 ft 7 kts 232°
2026-05-05 14:24 51.28362 6.76507 120 ft 7 kts 231°
2026-05-05 14:24 51.28327 6.76435 123 ft 9 kts 232°
2026-05-05 14:25 51.28286 6.76350 125 ft 11 kts 232°
2026-05-05 14:25 51.28237 6.76249 126 ft 12 kts 233°
2026-05-05 14:25 51.28185 6.76137 124 ft 12 kts 233°
2026-05-05 14:25 51.28142 6.76046 127 ft 9 kts 233°
2026-05-05 14:26 51.28108 6.75973 127 ft 7 kts 233°
2026-05-05 14:26 51.28081 6.75916 126 ft 6 kts 233°
2026-05-05 14:26 51.28060 6.75873 127 ft 4 kts 232°
2026-05-05 14:26 51.28047 6.75845 124 ft 2 kts 233°
2026-05-05 14:27 51.28028 6.75806 125 ft 11 kts 232°
2026-05-05 14:27 51.27960 6.75661 126 ft 14 kts 236°
2026-05-05 14:27 51.27960 6.75561 124 ft 6 kts 310°
2026-05-05 14:27 51.27975 6.75544 126 ft 0 kts 329°
2026-05-05 14:28 51.27976 6.75543 126 ft 0 kts 329°
2026-05-05 14:28 51.27993 6.75529 124 ft 6 kts 333°
2026-05-05 14:28 51.28045 6.75498 123 ft 9 kts 344°
2026-05-05 14:29 51.28101 6.75504 127 ft 7 kts 28°
2026-05-05 14:29 51.28129 6.75547 125 ft 1 kts 53°
2026-05-05 14:29 51.28136 6.75563 126 ft 8 kts 54°
2026-05-05 14:29 51.28325 6.75956 127 ft 81 kts 52°
2026-05-05 14:30 51.28781 6.76925 124 ft 138 kts 51°
2026-05-05 14:30 51.29484 6.78275 269 ft 170 kts 48°
2026-05-05 14:30 51.30216 6.79793 921 ft 171 kts 49°
2026-05-05 14:30 51.30919 6.81304 1549 ft 170 kts 51°
2026-05-05 14:31 51.31671 6.82911 1739 ft 191 kts 52°
2026-05-05 14:31 51.32510 6.84695 1882 ft 212 kts 52°
2026-05-05 14:31 51.33444 6.86683 2187 ft 231 kts 52°
2026-05-05 14:31 51.34422 6.88850 2577 ft 248 kts 53°
2026-05-05 14:32 51.35231 6.91345 3194 ft 258 kts 78°
2026-05-05 14:32 51.35197 6.94239 3876 ft 265 kts 100°
2026-05-05 14:32 51.34884 6.97156 4603 ft 269 kts 100°
2026-05-05 14:32 51.34567 7.00125 5096 ft 272 kts 100°
2026-05-05 14:33 51.34252 7.03138 5828 ft 275 kts 101°
2026-05-05 14:33 51.33938 7.06179 6506 ft 279 kts 101°
2026-05-05 14:33 51.33626 7.09252 7158 ft 281 kts 100°
2026-05-05 14:33 51.33317 7.12325 7828 ft 284 kts 101°
2026-05-05 14:34 51.32936 7.15427 8496 ft 285 kts 109°
2026-05-05 14:34 51.32121 7.18294 9156 ft 284 kts 125°
2026-05-05 14:34 51.30872 7.20723 9828 ft 283 kts 138°
2026-05-05 14:34 51.29425 7.22949 10178 ft 298 kts 137°
2026-05-05 14:35 51.27895 7.25350 10309 ft 319 kts 136°
2026-05-05 14:35 51.26273 7.27924 10440 ft 338 kts 137°
2026-05-05 14:35 51.24566 7.30635 10629 ft 354 kts 136°
2026-05-05 14:35 51.22804 7.33429 11125 ft 360 kts 136°
2026-05-05 14:36 51.21014 7.36259 11702 ft 363 kts 137°
2026-05-05 14:36 51.19213 7.39098 12307 ft 366 kts 136°
2026-05-05 14:36 51.17389 7.41972 12880 ft 369 kts 137°
2026-05-05 14:36 51.15555 7.44857 13472 ft 372 kts 137°
2026-05-05 14:37 51.13690 7.47755 13995 ft 376 kts 137°
2026-05-05 14:37 51.11797 7.50656 14501 ft 378 kts 137°
2026-05-05 14:37 51.09897 7.53551 14997 ft 381 kts 138°
2026-05-05 14:37 51.07964 7.56484 15485 ft 384 kts 137°
2026-05-05 14:38 51.06028 7.59420 15961 ft 387 kts 137°
2026-05-05 14:38 51.04072 7.62387 16433 ft 390 kts 137°
2026-05-05 14:38 51.02104 7.65369 16909 ft 392 kts 137°
2026-05-05 14:38 51.00120 7.68378 17384 ft 395 kts 137°
2026-05-05 14:39 50.98126 7.71404 17861 ft 397 kts 137°
2026-05-05 14:39 50.96033 7.74212 18282 ft 399 kts 146°
2026-05-05 14:39 50.93695 7.76581 18680 ft 400 kts 149°
2026-05-05 14:39 50.91326 7.78916 19098 ft 402 kts 149°
2026-05-05 14:40 50.88939 7.81263 19497 ft 404 kts 149°
2026-05-05 14:40 50.86542 7.83617 19900 ft 406 kts 149°
2026-05-05 14:40 50.84141 7.85974 20299 ft 408 kts 149°
2026-05-05 14:40 50.81724 7.88348 20696 ft 410 kts 149°
2026-05-05 14:41 50.79299 7.90733 21135 ft 412 kts 149°
2026-05-05 14:41 50.76860 7.93127 21576 ft 414 kts 149°
2026-05-05 14:41 50.74407 7.95524 22007 ft 416 kts 149°
2026-05-05 14:41 50.71933 7.97936 22390 ft 418 kts 149°
2026-05-05 14:42 50.69447 8.00361 22756 ft 420 kts 150°
2026-05-05 14:42 50.66955 8.02789 23121 ft 422 kts 150°
2026-05-05 14:42 50.64445 8.05227 23459 ft 424 kts 150°
2026-05-05 14:42 50.61931 8.07659 23757 ft 426 kts 150°
2026-05-05 14:43 50.60271 8.09343 23981 ft 428 kts 146°
2026-05-05 14:43 50.57945 8.12291 24313 ft 430 kts 142°
2026-05-05 14:43 50.55652 8.15322 24640 ft 431 kts 142°
2026-05-05 14:43 50.53352 8.18357 24942 ft 432 kts 142°
2026-05-05 14:44 50.51041 8.21388 25239 ft 434 kts 142°
2026-05-05 14:44 50.48709 8.24432 25536 ft 435 kts 142°
2026-05-05 14:44 50.46381 8.27466 25832 ft 436 kts 142°
2026-05-05 14:44 50.44044 8.30517 26108 ft 438 kts 142°
2026-05-05 14:45 50.41700 8.33577 26392 ft 439 kts 142°
2026-05-05 14:45 50.39345 8.36650 26641 ft 442 kts 143°
2026-05-05 14:45 50.36964 8.39747 26909 ft 444 kts 143°
2026-05-05 14:45 50.34622 8.42783 27170 ft 446 kts 143°
2026-05-05 14:46 50.32219 8.45895 27503 ft 446 kts 143°
2026-05-05 14:46 50.29824 8.48988 27886 ft 446 kts 143°
2026-05-05 14:46 50.27435 8.52076 28376 ft 445 kts 143°
2026-05-05 14:46 50.25052 8.55151 28827 ft 443 kts 143°
2026-05-05 14:47 50.22681 8.58199 29237 ft 441 kts 143°
2026-05-05 14:47 50.20313 8.61249 29581 ft 440 kts 143°
2026-05-05 14:47 50.17962 8.64278 29977 ft 439 kts 143°
2026-05-05 14:47 50.15606 8.67303 30286 ft 437 kts 143°
2026-05-05 14:48 50.13265 8.70303 30583 ft 436 kts 143°
2026-05-05 14:48 50.10925 8.73303 30901 ft 434 kts 143°
2026-05-05 14:48 50.08593 8.76297 31217 ft 433 kts 142°
2026-05-05 14:48 50.06459 8.79613 31558 ft 435 kts 133°
2026-05-05 14:49 50.04690 8.83433 31874 ft 438 kts 124°
2026-05-05 14:49 50.03294 8.87663 32184 ft 440 kts 120°
2026-05-05 14:49 50.01977 8.91937 32493 ft 439 kts 120°
2026-05-05 14:49 50.00650 8.96216 32741 ft 438 kts 120°
2026-05-05 14:50 49.98000 9.04709 32831 ft 433 kts 120°
2026-05-05 14:50 49.95366 9.13091 32812 ft 433 kts 120°
2026-05-05 14:51 49.92717 9.21504 32837 ft 434 kts 120°
2026-05-05 14:51 49.90070 9.29921 32835 ft 434 kts 120°
2026-05-05 14:52 49.87433 9.38273 32834 ft 434 kts 120°
2026-05-05 14:52 49.84747 9.46720 32835 ft 434 kts 120°
2026-05-05 14:53 49.81743 9.54677 32811 ft 427 kts 133°
2026-05-05 14:53 49.77595 9.61127 32832 ft 423 kts 140°
2026-05-05 14:54 49.73300 9.67347 32823 ft 423 kts 140°
2026-05-05 14:54 49.69006 9.73556 32828 ft 423 kts 140°
2026-05-05 14:55 49.64694 9.79778 32838 ft 423 kts 140°
2026-05-05 14:55 49.60396 9.85977 32847 ft 423 kts 140°
2026-05-05 14:56 49.56087 9.92170 32829 ft 423 kts 141°
2026-05-05 14:56 49.51778 9.98336 32842 ft 423 kts 140°
2026-05-05 14:57 49.47465 10.04501 32873 ft 423 kts 140°
2026-05-05 14:57 49.43160 10.10640 32865 ft 421 kts 141°
2026-05-05 14:58 49.38878 10.16720 32861 ft 421 kts 141°
2026-05-05 14:58 49.34572 10.22811 32840 ft 421 kts 141°
2026-05-05 14:59 49.30272 10.28898 32824 ft 421 kts 141°
2026-05-05 14:59 49.25961 10.34986 32833 ft 421 kts 141°
2026-05-05 15:00 49.22181 10.39634 32816 ft 417 kts 152°
2026-05-05 15:00 49.16356 10.44952 32851 ft 418 kts 152°
2026-05-05 15:01 49.11356 10.49482 32858 ft 418 kts 152°
2026-05-05 15:01 49.06350 10.54018 32855 ft 418 kts 152°
2026-05-05 15:02 49.01357 10.58545 32861 ft 418 kts 152°
2026-05-05 15:02 48.96403 10.63038 32831 ft 417 kts 152°
2026-05-05 15:03 48.91401 10.67549 32840 ft 418 kts 152°
2026-05-05 15:03 48.86376 10.72062 32840 ft 419 kts 152°
2026-05-05 15:04 48.81438 10.76784 32819 ft 422 kts 144°
2026-05-05 15:04 48.77298 10.83173 32819 ft 426 kts 135°
2026-05-05 15:05 48.71343 10.93184 32800 ft 426 kts 135°
2026-05-05 15:06 48.67361 10.99853 32782 ft 427 kts 136°
2026-05-05 15:06 48.63356 11.06522 32775 ft 429 kts 136°
2026-05-05 15:07 48.59341 11.13200 32784 ft 430 kts 136°
2026-05-05 15:07 48.55316 11.19881 32791 ft 430 kts 136°
2026-05-05 15:08 48.51277 11.26555 32797 ft 430 kts 136°
2026-05-05 15:08 48.47238 11.33223 32773 ft 431 kts 136°
2026-05-05 15:09 48.43181 11.39897 32772 ft 433 kts 136°
2026-05-05 15:09 48.39135 11.46538 32775 ft 434 kts 136°
2026-05-05 15:10 48.35043 11.53244 32769 ft 434 kts 136°
2026-05-05 15:10 48.30965 11.59920 32767 ft 434 kts 136°
2026-05-05 15:11 48.26866 11.66602 32749 ft 434 kts 137°
2026-05-05 15:11 48.22588 11.72977 32757 ft 433 kts 141°
2026-05-05 15:12 48.18093 11.78997 32766 ft 433 kts 142°
2026-05-05 15:12 48.13602 11.84957 32772 ft 434 kts 142°
2026-05-05 15:13 48.09098 11.91098 32777 ft 434 kts 141°
2026-05-05 15:13 48.04648 11.97215 32783 ft 435 kts 141°
2026-05-05 15:14 48.00182 12.03309 32753 ft 435 kts 141°
2026-05-05 15:14 47.95715 12.09378 32766 ft 438 kts 141°
2026-05-05 15:15 47.91205 12.15488 32758 ft 439 kts 141°
2026-05-05 15:15 47.86678 12.21604 32761 ft 439 kts 142°
2026-05-05 15:16 47.82152 12.27704 32760 ft 439 kts 142°
2026-05-05 15:16 47.77628 12.33794 32760 ft 439 kts 142°
2026-05-05 15:17 47.73085 12.39890 32750 ft 440 kts 142°
2026-05-05 15:17 47.68526 12.45982 32755 ft 441 kts 142°
2026-05-05 15:18 47.63957 12.52083 32754 ft 442 kts 142°
2026-05-05 15:18 47.59150 12.57685 32764 ft 439 kts 147°
2026-05-05 15:19 47.54239 12.63061 32748 ft 439 kts 147°
2026-05-05 15:19 47.49311 12.68453 32769 ft 441 kts 148°
2026-05-05 15:20 47.44352 12.73855 32773 ft 443 kts 148°
2026-05-05 15:20 47.39390 12.79266 32797 ft 445 kts 148°
2026-05-05 15:21 47.34435 12.84658 32798 ft 446 kts 148°
2026-05-05 15:21 47.29438 12.90076 32832 ft 446 kts 148°
2026-05-05 15:22 47.24432 12.95470 32822 ft 445 kts 148°
2026-05-05 15:22 47.19424 13.00851 32865 ft 446 kts 148°
2026-05-05 15:23 47.14420 13.06232 32859 ft 446 kts 148°
2026-05-05 15:23 47.09413 13.11615 32885 ft 446 kts 148°
2026-05-05 15:24 47.04408 13.16980 32888 ft 446 kts 148°
2026-05-05 15:24 46.99385 13.22340 32897 ft 446 kts 148°
2026-05-05 15:25 46.94363 13.27682 32922 ft 446 kts 148°
2026-05-05 15:25 46.90185 13.32120 32930 ft 446 kts 148°
2026-05-05 15:26 46.85158 13.37448 32933 ft 447 kts 148°
2026-05-05 15:26 46.80127 13.42774 32936 ft 446 kts 148°
2026-05-05 15:27 46.75095 13.48085 32945 ft 447 kts 148°
2026-05-05 15:27 46.70030 13.53405 32936 ft 449 kts 148°
2026-05-05 15:28 46.64943 13.58742 32945 ft 451 kts 148°
2026-05-05 15:28 46.59840 13.64094 32954 ft 453 kts 148°
2026-05-05 15:29 46.54730 13.69456 32956 ft 453 kts 148°
2026-05-05 15:29 46.49605 13.74804 32965 ft 454 kts 148°
2026-05-05 15:30 46.44471 13.80136 32970 ft 454 kts 148°
2026-05-05 15:30 46.39331 13.85470 32969 ft 455 kts 148°
2026-05-05 15:31 46.34217 13.90771 32989 ft 455 kts 148°
2026-05-05 15:31 46.29065 13.96094 32989 ft 456 kts 148°
2026-05-05 15:32 46.23893 14.01422 32998 ft 456 kts 148°
2026-05-05 15:32 46.18718 14.06739 33007 ft 456 kts 148°
2026-05-05 15:33 46.13542 14.12061 33004 ft 458 kts 148°
2026-05-05 15:33 46.08344 14.17384 32999 ft 459 kts 148°
2026-05-05 15:34 46.03155 14.22676 32995 ft 460 kts 148°
2026-05-05 15:34 45.97934 14.27991 33013 ft 460 kts 148°
2026-05-05 15:35 45.92696 14.33312 33016 ft 461 kts 148°
2026-05-05 15:35 45.87446 14.38640 32997 ft 461 kts 148°
2026-05-05 15:36 45.82193 14.43953 33008 ft 463 kts 148°
2026-05-05 15:36 45.76922 14.49268 33010 ft 463 kts 148°
2026-05-05 15:37 45.71654 14.54578 33019 ft 463 kts 148°
2026-05-05 15:37 45.66372 14.59899 33012 ft 464 kts 148°
2026-05-05 15:38 45.61129 14.65147 33005 ft 464 kts 148°
2026-05-05 15:38 45.55830 14.70421 32993 ft 465 kts 148°
2026-05-05 15:39 45.50639 14.75944 33006 ft 468 kts 143°
2026-05-05 15:39 45.45664 14.81947 33002 ft 469 kts 143°
2026-05-05 15:40 45.40677 14.87967 33017 ft 469 kts 143°
2026-05-05 15:40 45.35693 14.93956 33006 ft 469 kts 143°
2026-05-05 15:41 45.30693 14.99946 33003 ft 470 kts 143°
2026-05-05 15:41 45.25687 15.05931 33000 ft 470 kts 143°
2026-05-05 15:42 45.20704 15.11861 33005 ft 471 kts 143°
2026-05-05 15:42 45.15681 15.17833 33007 ft 471 kts 143°
2026-05-05 15:43 45.10659 15.23789 32999 ft 471 kts 143°
2026-05-05 15:43 45.05623 15.29739 33011 ft 472 kts 143°
2026-05-05 15:44 45.00588 15.35691 33017 ft 472 kts 143°
2026-05-05 15:44 44.95543 15.41645 33028 ft 472 kts 143°
2026-05-05 15:45 44.90499 15.47577 33008 ft 472 kts 143°
2026-05-05 15:45 44.85441 15.53512 33012 ft 473 kts 143°
2026-05-05 15:46 44.80371 15.59427 33021 ft 473 kts 143°
2026-05-05 15:46 44.75293 15.65348 33040 ft 474 kts 143°
2026-05-05 15:47 44.70211 15.71266 33035 ft 474 kts 143°
2026-05-05 15:47 44.65126 15.77176 33029 ft 475 kts 143°
2026-05-05 15:48 44.60028 15.83086 33034 ft 475 kts 143°
2026-05-05 15:48 44.54925 15.88985 33049 ft 475 kts 144°
2026-05-05 15:49 44.49847 15.94833 33052 ft 475 kts 144°
2026-05-05 15:49 44.44731 16.00720 33052 ft 476 kts 143°
2026-05-05 15:50 44.39609 16.06604 33042 ft 476 kts 144°
2026-05-05 15:50 44.34475 16.12480 33048 ft 477 kts 144°
2026-05-05 15:51 44.29336 16.18349 33072 ft 477 kts 144°
2026-05-05 15:51 44.24197 16.24210 33066 ft 477 kts 144°
2026-05-05 15:52 44.19041 16.30070 33057 ft 477 kts 144°
2026-05-05 15:52 44.13920 16.35875 33066 ft 478 kts 144°
2026-05-05 15:53 44.08730 16.41753 33076 ft 478 kts 144°
2026-05-05 15:53 44.03604 16.47536 33083 ft 478 kts 144°
2026-05-05 15:54 43.98368 16.53251 33085 ft 478 kts 146°
2026-05-05 15:54 43.93050 16.58789 33087 ft 478 kts 147°
2026-05-05 15:55 43.87721 16.64306 33091 ft 478 kts 146°
2026-05-05 15:55 43.82409 16.69877 33089 ft 478 kts 146°
2026-05-05 15:56 43.77108 16.75462 33086 ft 479 kts 146°
2026-05-05 15:56 43.71792 16.81029 33068 ft 479 kts 147°
2026-05-05 15:57 43.66468 16.86572 33074 ft 479 kts 147°
2026-05-05 15:57 43.61147 16.92114 33071 ft 480 kts 146°
2026-05-05 15:58 43.55847 16.97627 33067 ft 480 kts 147°
2026-05-05 15:58 43.50507 17.03150 33071 ft 480 kts 147°
2026-05-05 15:59 43.45161 17.08658 33069 ft 480 kts 147°
2026-05-05 15:59 43.39814 17.14162 33066 ft 480 kts 147°
2026-05-05 16:00 43.34474 17.19663 33080 ft 481 kts 147°
2026-05-05 16:00 43.31788 17.22428 33273 ft 483 kts 147°
2026-05-05 16:00 43.29089 17.25201 33505 ft 484 kts 147°
2026-05-05 16:00 43.26387 17.27973 33712 ft 485 kts 147°
2026-05-05 16:01 43.23682 17.30742 33967 ft 486 kts 147°
2026-05-05 16:01 43.20972 17.33511 34223 ft 486 kts 147°
2026-05-05 16:01 43.18267 17.36271 34477 ft 485 kts 147°
2026-05-05 16:01 43.15560 17.39029 34737 ft 484 kts 147°
2026-05-05 16:02 43.12857 17.41780 34979 ft 484 kts 147°
2026-05-05 16:02 43.07448 17.47277 35082 ft 484 kts 147°
2026-05-05 16:03 43.02036 17.52775 35080 ft 484 kts 147°
2026-05-05 16:03 42.96624 17.58258 35080 ft 485 kts 147°
2026-05-05 16:04 42.91198 17.63744 35084 ft 484 kts 147°
2026-05-05 16:04 42.85788 17.69194 35084 ft 484 kts 147°
2026-05-05 16:05 42.80361 17.74641 35081 ft 485 kts 148°
2026-05-05 16:05 42.74957 17.80063 35075 ft 486 kts 148°
2026-05-05 16:06 42.69483 17.85546 35076 ft 486 kts 148°
2026-05-05 16:06 42.64068 17.90961 35088 ft 487 kts 148°
2026-05-05 16:07 42.58601 17.96416 35079 ft 487 kts 148°
2026-05-05 16:07 42.53130 18.01854 35087 ft 487 kts 148°
2026-05-05 16:08 42.47659 18.07281 35094 ft 488 kts 148°
2026-05-05 16:08 42.42183 18.12709 35096 ft 488 kts 148°
2026-05-05 16:09 42.36685 18.18130 35090 ft 488 kts 148°
2026-05-05 16:09 42.32123 18.22621 35096 ft 488 kts 148°
2026-05-05 16:10 42.25744 18.28900 35097 ft 488 kts 148°
2026-05-05 16:10 42.21151 18.33411 35095 ft 487 kts 148°
2026-05-05 16:11 42.15698 18.38764 35086 ft 487 kts 148°
2026-05-05 16:12 42.04724 18.49478 35069 ft 489 kts 148°
2026-05-05 16:13 41.91112 18.63332 35069 ft 492 kts 146°
2026-05-05 16:13 41.85723 18.69013 35049 ft 493 kts 147°
2026-05-05 16:14 41.74828 18.80256 35068 ft 495 kts 147°
2026-05-05 16:15 41.63875 18.91528 35050 ft 498 kts 147°
2026-05-05 16:16 41.52862 19.02823 35072 ft 500 kts 147°
2026-05-05 16:17 41.44299 19.10623 35076 ft 491 kts 161°
2026-05-05 16:18 41.34782 19.15403 35067 ft 488 kts 166°
2026-05-05 16:19 41.25192 19.20083 35070 ft 491 kts 166°
2026-05-05 16:19 41.15612 19.24749 35076 ft 492 kts 166°
2026-05-05 16:20 41.02751 19.30980 35083 ft 492 kts 166°
2026-05-05 16:22 40.86671 19.38729 35081 ft 492 kts 166°
2026-05-05 16:23 40.73788 19.44908 35086 ft 492 kts 166°
2026-05-05 16:23 40.64121 19.49540 34990 ft 493 kts 165°
2026-05-05 16:24 40.60887 19.51086 34320 ft 495 kts 166°
2026-05-05 16:24 40.57637 19.52630 33571 ft 497 kts 166°
2026-05-05 16:24 40.51117 19.55717 32186 ft 498 kts 165°
2026-05-05 16:25 40.47853 19.57263 31490 ft 499 kts 165°
2026-05-05 16:25 40.41365 19.60336 30156 ft 499 kts 164°
2026-05-05 16:25 40.38100 19.61883 29371 ft 498 kts 164°
2026-05-05 16:26 40.31591 19.64958 28014 ft 494 kts 163°
2026-05-05 16:26 40.25194 19.67980 26869 ft 483 kts 163°
2026-05-05 16:27 40.22042 19.69462 26336 ft 478 kts 163°
2026-05-05 16:27 40.18925 19.70926 25806 ft 473 kts 163°
2026-05-05 16:27 40.15847 19.72368 25225 ft 466 kts 163°
2026-05-05 16:27 40.12820 19.73789 24410 ft 459 kts 163°
2026-05-05 16:28 40.09841 19.75186 23425 ft 449 kts 163°
2026-05-05 16:28 40.06924 19.76553 22173 ft 441 kts 163°
2026-05-05 16:28 40.04057 19.77897 20990 ft 432 kts 163°
2026-05-05 16:28 40.01249 19.79209 19851 ft 425 kts 162°
2026-05-05 16:29 39.98462 19.80509 19262 ft 423 kts 162°
2026-05-05 16:29 39.95704 19.81800 18786 ft 418 kts 162°
2026-05-05 16:29 39.92986 19.83070 18267 ft 414 kts 162°
2026-05-05 16:29 39.90318 19.84312 17710 ft 410 kts 162°
2026-05-05 16:30 39.87621 19.85591 17157 ft 406 kts 161°
2026-05-05 16:30 39.84911 19.86459 16630 ft 399 kts 177°
2026-05-05 16:30 39.82179 19.86225 16108 ft 390 kts 196°
2026-05-05 16:30 39.79714 19.84883 15584 ft 382 kts 215°
2026-05-05 16:31 39.77747 19.82637 15066 ft 375 kts 233°
2026-05-05 16:31 39.76282 19.79860 14521 ft 372 kts 238°
2026-05-05 16:31 39.74802 19.77154 14030 ft 371 kts 234°
2026-05-05 16:31 39.73152 19.74527 13492 ft 369 kts 230°
2026-05-05 16:32 39.71423 19.72130 12967 ft 367 kts 227°
2026-05-05 16:32 39.69645 19.69760 12448 ft 365 kts 226°
2026-05-05 16:32 39.67654 19.67747 11920 ft 364 kts 209°
2026-05-05 16:32 39.65295 19.66590 11409 ft 362 kts 197°
2026-05-05 16:33 39.62869 19.65715 10886 ft 361 kts 196°
2026-05-05 16:33 39.60451 19.64863 10631 ft 361 kts 196°
2026-05-05 16:33 39.58021 19.64013 10388 ft 352 kts 196°
2026-05-05 16:33 39.55719 19.63209 10151 ft 342 kts 196°
2026-05-05 16:34 39.53453 19.62417 9923 ft 333 kts 196°
2026-05-05 16:34 39.51256 19.61649 9788 ft 320 kts 196°
2026-05-05 16:34 39.49145 19.60909 9655 ft 309 kts 196°
2026-05-05 16:34 39.47108 19.60193 9516 ft 298 kts 196°
2026-05-05 16:35 39.45191 19.59698 9395 ft 296 kts 182°
2026-05-05 16:35 39.43125 19.60175 9031 ft 299 kts 155°
2026-05-05 16:35 39.41465 19.61756 8480 ft 300 kts 128°
2026-05-05 16:35 39.40522 19.64117 8176 ft 292 kts 103°
2026-05-05 16:36 39.40232 19.66703 7780 ft 290 kts 95°
2026-05-05 16:36 39.40024 19.69290 7401 ft 288 kts 95°
2026-05-05 16:36 39.39829 19.71834 7023 ft 287 kts 95°
2026-05-05 16:36 39.39731 19.74403 6651 ft 285 kts 88°
2026-05-05 16:37 39.39777 19.76956 6278 ft 283 kts 89°
2026-05-05 16:37 39.39812 19.79477 5755 ft 278 kts 89°
2026-05-05 16:37 39.39845 19.81974 4975 ft 277 kts 89°
2026-05-05 16:37 39.39877 19.84453 4278 ft 273 kts 89°
2026-05-05 16:38 39.39919 19.86852 3859 ft 257 kts 85°
2026-05-05 16:38 39.40257 19.89000 3827 ft 231 kts 73°
2026-05-05 16:38 39.40707 19.90952 3740 ft 223 kts 73°
2026-05-05 16:38 39.41119 19.92766 3641 ft 197 kts 73°
2026-05-05 16:39 39.41488 19.94395 3546 ft 183 kts 73°
2026-05-05 16:39 39.41907 19.95907 3463 ft 175 kts 56°
2026-05-05 16:39 39.42791 19.96929 3388 ft 170 kts 22°
2026-05-05 16:39 39.43944 19.97164 3152 ft 169 kts 349°
2026-05-05 16:40 39.45068 19.96768 2918 ft 167 kts 342°
2026-05-05 16:40 39.46177 19.96350 2698 ft 165 kts 342°
2026-05-05 16:40 39.47283 19.95937 2474 ft 166 kts 342°
2026-05-05 16:40 39.48384 19.95525 2245 ft 165 kts 341°
2026-05-05 16:41 39.49476 19.95112 2042 ft 160 kts 340°
2026-05-05 16:41 39.50494 19.94731 1815 ft 154 kts 341°
2026-05-05 16:41 39.51503 19.94355 1615 ft 151 kts 340°
2026-05-05 16:41 39.52504 19.93977 1423 ft 152 kts 341°
2026-05-05 16:42 39.53510 19.93596 1225 ft 151 kts 342°
2026-05-05 16:42 39.54518 19.93216 1023 ft 150 kts 340°
2026-05-05 16:42 39.55515 19.92805 848 ft 150 kts 337°
2026-05-05 16:42 39.56493 19.92323 739 ft 151 kts 337°
2026-05-05 16:43 39.57502 19.91951 475 ft 151 kts 344°
2026-05-05 16:43 39.58528 19.91676 279 ft 151 kts 346°
2026-05-05 16:43 39.59540 19.91388 36 ft 142 kts 345°
2026-05-05 16:43 39.60373 19.91169 19 ft 86 kts 349°
2026-05-05 16:44 39.60701 19.91084 18 ft 29 kts 350°
2026-05-05 16:44 39.60877 19.91038 19 ft 22 kts 348°
2026-05-05 16:44 39.60990 19.91013 19 ft 6 kts
2026-05-05 16:44 39.61023 19.91032 20 ft 4 kts 33°
2026-05-05 16:45 39.61042 19.91056 21 ft 4 kts 53°
2026-05-05 16:45 39.61055 19.91102 19 ft 7 kts 84°
2026-05-05 16:45 39.61015 19.91143 19 ft 9 kts 171°
2026-05-05 16:45 39.60953 19.91153 19 ft 8 kts 172°
2026-05-05 16:46 39.60899 19.91164 19 ft 7 kts 171°
2026-05-05 16:46 39.60851 19.91178 18 ft 7 kts 168°
2026-05-05 16:46 39.60807 19.91190 20 ft 6 kts 168°
2026-05-05 16:46 39.60768 19.91201 18 ft 5 kts 168°
2026-05-05 16:47 39.60735 19.91209 20 ft 4 kts 168°
2026-05-05 16:47 39.60708 19.91216 21 ft 3 kts 169°
2026-05-05 16:47 39.60689 19.91221 18 ft 2 kts 169°
2026-05-05 16:47 39.60678 19.91224 18 ft 3 kts 169°
2026-05-05 16:48 39.60659 19.91235 18 ft 1 kts 127°
2026-05-05 16:48 39.60655 19.91258 18 ft 5 kts 99°
2026-05-05 16:48 39.60657 19.91292 18 ft 2 kts 78°
2026-05-05 16:48 39.60659 19.91300 18 ft 1 kts 78°
2026-05-05 16:49 39.60661 19.91318 18 ft 1 kts 79°
2026-05-05 16:49 39.60663 19.91331 18 ft 4 kts 79°
2026-05-05 16:49 39.60666 19.91349 18 ft 0 kts 80°
2026-05-05 16:49 39.60666 19.91354 18 ft 0 kts 80°